EW4338 Weather Reports


Display with metric or nautical units.
time (UTC)temp
F
wind
direction
speed
MPH
gust
MPH
rain 1hr
in
rain 24hr
in
rain mn
in
humidity
%
barometer
mb
20210917154526 44 71 0.0 2.0 0.00 0.00 0.00 76 1025.3
20210917154002 44 79 0.0 1.0 0.00 0.00 0.00 76 1025.2
20210917153501 44 96 0.0 1.0 0.00 0.00 0.00 77 1025.1
20210917153154 44 90 0.0 2.0 0.00 0.00 0.00 78 1025.1
20210917152601 44 90 0.0 2.0 0.00 0.00 0.00 79 1025.0
20210917152057 44 103 0.0 0.0 0.00 0.00 0.00 78 1025.0
20210917151606 44 103 0.0 0.0 0.00 0.00 0.00 78 1025.1
20210917151056 44 103 0.0 0.0 0.00 0.00 0.00 78 1024.9
20210917150610 44 102 0.0 0.0 0.00 0.00 0.00 78 1024.9
20210917150332 44 129 0.0 0.0 0.00 0.00 0.00 78 1024.7
20210917145603 43 102 0.0 0.0 0.00 0.00 0.00 78 1024.7
20210917145052 43 102 0.0 1.0 0.00 0.00 0.00 78 1024.7
20210917144613 43 100 0.0 0.0 0.00 0.00 0.00 78 1024.7
20210917144051 43 100 0.0 0.0 0.00 0.00 0.00 79 1024.7
20210917143603 43 100 0.0 0.0 0.00 0.00 0.00 79 1024.7
20210917143128 43 100 0.0 1.0 0.00 0.00 0.00 79 1024.6
20210917142553 43 100 0.0 1.0 0.00 0.00 0.00 79 1024.6
20210917142047 42 100 0.0 0.0 0.00 0.00 0.00 80 1024.7
20210917141629 42 100 0.0 0.0 0.00 0.00 0.00 80 1024.7
20210917141110 42 100 0.0 0.0 0.00 0.00 0.00 80 1024.6
20210917140556 42 100 0.0 0.0 0.00 0.00 0.00 80 1024.6
20210917140128 42 100 0.0 0.0 0.00 0.00 0.00 80 1024.5
20210917135556 42 100 0.0 0.0 0.00 0.00 0.00 81 1024.6
20210917135046 42 100 0.0 0.0 0.00 0.00 0.00 81 1024.4
20210917134554 42 100 0.0 0.0 0.00 0.00 0.00 81 1024.4
20210917134039 42 100 0.0 0.0 0.00 0.00 0.00 81 1024.3
20210917133609 42 100 0.0 0.0 0.00 0.00 0.00 81 1024.3
20210917133222 41 100 0.0 0.0 0.00 0.00 0.00 82 1024.3
20210917132604 41 100 0.0 0.0 0.00 0.00 0.00 82 1024.2
20210917132047 41 100 0.0 1.0 0.00 0.00 0.00 82 1024.0
20210917131539 41 100 0.0 1.0 0.00 0.00 0.00 82 1024.0
20210917131046 41 100 0.0 0.0 0.00 0.00 0.00 82 1023.8
20210917130534 41 100 0.0 0.0 0.00 0.00 0.00 82 1023.7
20210917130150 41 100 0.0 0.0 0.00 0.00 0.00 82 1023.6
20210917125535 41 100 0.0 1.0 0.00 0.00 0.00 82 1023.6
20210917125036 41 88 0.0 1.0 0.00 0.00 0.00 82 1023.4
20210917124723 41 75 0.0 0.0 0.00 0.00 0.00 82 1023.4
20210917124056 41 75 0.0 1.0 0.00 0.00 0.00 82 1023.3
20210917123529 41 75 0.0 1.0 0.00 0.00 0.00 82 1023.3
20210917123033 41 75 0.0 0.0 0.00 0.00 0.00 82 1023.2
20210917122528 41 75 0.0 0.0 0.00 0.00 0.00 82 1023.0
20210917122028 40 75 0.0 0.0 0.00 0.00 0.00 83 1023.0
20210917121530 40 75 0.0 0.0 0.00 0.00 0.00 83 1023.0
20210917121027 40 75 0.0 1.0 0.00 0.00 0.00 83 1022.9
20210917120525 40 75 0.0 1.0 0.00 0.00 0.00 83 1022.7
20210917120034 40 75 0.0 0.0 0.00 0.00 0.00 83 1022.6
20210917115533 40 75 0.0 1.0 0.00 0.00 0.00 83 1022.6
20210917115025 40 62 0.0 1.0 0.00 0.00 0.00 82 1022.3
20210917114550 40 62 0.0 1.0 0.00 0.00 0.00 82 1022.3
20210917114020 40 58 0.0 0.0 0.00 0.00 0.00 82 1022.1
20210917113520 40 58 0.0 0.0 0.00 0.00 0.00 81 1022.2
20210917113049 40 55 0.0 1.0 0.00 0.00 0.00 81 1022.0
20210917112517 41 58 0.0 3.0 0.00 0.00 0.00 80 1021.9
20210917112016 41 74 0.0 3.0 0.00 0.00 0.00 80 1021.7
20210917111531 41 79 0.0 2.0 0.00 0.00 0.00 80 1021.6
20210917111014 41 67 0.0 0.0 0.00 0.00 0.00 80 1021.5
20210917110513 41 67 0.0 1.0 0.00 0.00 0.00 80 1021.4
20210917110011 42 67 0.0 2.0 0.00 0.00 0.00 79 1021.2
20210917105510 42 67 0.0 2.0 0.00 0.00 0.00 78 1021.0
20210917105009 42 66 0.0 0.0 0.00 0.00 0.00 78 1021.0
20210917104546 42 56 0.0 1.0 0.00 0.00 0.00 77 1020.9
20210917104014 43 55 0.0 2.0 0.00 0.00 0.00 77 1020.8
20210917103505 43 56 0.0 2.0 0.00 0.00 0.00 76 1020.7
20210917103021 43 73 0.0 2.0 0.00 0.00 0.00 76 1020.5
20210917102503 44 54 0.0 7.0 0.00 0.00 0.00 76 1020.4
20210917102002 44 69 0.0 7.0 0.00 0.00 0.00 75 1020.2
20210917101653 45 73 0.0 3.0 0.00 0.00 0.00 75 1020.1
20210917101059 45 67 0.0 6.0 0.00 0.00 0.00 75 1020.0
20210917100557 46 74 0.0 6.0 0.00 0.00 0.00 75 1019.9
20210917100143 46 58 0.0 2.0 0.00 0.00 0.00 74 1019.8
20210917095619 47 56 0.0 3.0 0.00 0.00 0.00 74 1019.7
20210917095052 47 61 0.0 3.0 0.00 0.00 0.00 73 1019.6
20210917094606 47 58 0.0 2.0 0.00 0.00 0.00 73 1019.5
20210917094050 48 53 0.0 2.0 0.00 0.00 0.00 72 1019.5
20210917093611 48 63 0.0 2.0 0.00 0.00 0.00 71 1019.4
20210917093114 49 51 0.0 1.0 0.00 0.00 0.00 70 1019.3
20210917092546 49 78 0.0 1.0 0.00 0.00 0.00 70 1019.2
20210917092058 50 71 0.0 2.0 0.00 0.00 0.00 69 1019.0
20210917091600 50 79 0.0 3.0 0.00 0.00 0.00 68 1018.9
20210917091044 51 77 0.0 2.0 0.00 0.00 0.00 67 1018.8
20210917090541 51 83 0.0 0.0 0.00 0.00 0.00 66 1018.8
20210917090055 51 83 0.0 1.0 0.00 0.00 0.00 66 1018.5
20210917085538 51 79 0.0 3.0 0.00 0.00 0.00 66 1018.4
20210917085036 52 75 0.0 3.0 0.00 0.00 0.00 65 1018.3
20210917084558 52 67 0.0 2.0 0.00 0.00 0.00 65 1018.2
20210917084051 52 52 0.0 2.0 0.00 0.00 0.00 64 1018.1
20210917083533 52 61 0.0 2.0 0.00 0.00 0.00 63 1018.0
20210917083158 52 73 0.0 2.0 0.00 0.00 0.00 63 1017.9
20210917082536 53 70 0.0 0.0 0.00 0.00 0.00 62 1017.9
20210917082031 53 46 0.0 2.0 0.00 0.00 0.00 62 1017.8
20210917081611 53 66 0.0 2.0 0.00 0.00 0.00 61 1017.7
20210917081029 53 25 0.0 2.0 0.00 0.00 0.00 61 1017.4
20210917080528 54 30 0.0 4.0 0.00 0.00 0.00 59 1017.3
20210917080027 54 35 1.0 3.0 0.00 0.00 0.00 59 1017.4
20210917075525 54 63 0.0 3.0 0.00 0.00 0.00 58 1017.2
20210917075024 54 71 1.0 5.0 0.00 0.00 0.00 57 1017.0
20210917074539 54 67 1.0 5.0 0.00 0.00 0.00 57 1016.8
20210917074022 55 46 1.0 6.0 0.00 0.00 0.00 55 1016.9
20210917073520 55 74 1.0 7.0 0.00 0.00 0.00 53 1017.0
20210917073022 55 54 1.0 6.0 0.00 0.00 0.00 52 1016.6
20210917072517 56 65 0.0 15.0 0.00 0.00 0.00 50 1016.5
20210917072016 57 46 2.0 15.0 0.00 0.00 0.00 49 1016.1
20210917071543 57 42 1.0 7.0 0.00 0.00 0.00 46 1015.8
20210917071020 58 29 1.0 9.0 0.00 0.00 0.00 45 1015.7
20210917070527 59 56 1.0 9.0 0.00 0.00 0.00 41 1015.4
20210917070015 60 67 0.0 3.0 0.00 0.00 0.00 38 1015.2
20210917065511 60 42 0.0 5.0 0.00 0.00 0.00 36 1015.1
20210917065007 60 58 1.0 5.0 0.00 0.00 0.00 35 1015.0
20210917064513 61 56 0.0 4.0 0.00 0.00 0.00 33 1014.8
20210917064008 61 46 0.0 5.0 0.00 0.00 0.00 31 1014.4
20210917063505 62 46 0.0 5.0 0.00 0.00 0.00 29 1014.4
20210917063034 63 95 0.0 3.0 0.00 0.00 0.00 25 1014.3
20210917062502 64 49 0.0 15.0 0.00 0.00 0.00 22 1014.1
20210917062107 65 42 1.0 15.0 0.00 0.00 0.00 21 1014.0
20210917061646 67 37 1.0 6.0 0.00 0.00 0.00 20 1013.9
20210917061138 68 270 0.0 3.0 0.00 0.00 0.00 16 1013.6
20210917060612 68 270 0.0 3.0 0.00 0.00 0.00 16 1013.5
20210917060220 69 33 0.0 3.0 0.00 0.00 0.00 16 1013.4
20210917055557 68 26 0.0 6.0 0.00 0.00 0.00 16 1013.3
20210917055059 67 7 0.0 6.0 0.00 0.00 0.00 16 1013.2
20210917054935 67 28 0.0 0.0 0.00 0.00 0.00 16 1013.1
20210917054104 67 26 0.0 0.0 0.00 0.00 0.00 16 1012.9
20210917053550 67 6 0.0 0.0 0.00 0.00 0.00 16 1012.9
20210917053114 68 5 0.0 1.0 0.00 0.00 0.00 16 1012.8
20210917052559 68 270 0.0 0.0 0.00 0.00 0.00 15 1012.6
20210917052105 69 358 0.0 7.0 0.00 0.00 0.00 15 1012.5
20210917051645 69 360 1.0 9.0 0.00 0.00 0.00 15 1012.5
20210917051101 69 270 0.0 9.0 0.00 0.00 0.00 15 1012.3
20210917050608 69 270 2.0 8.0 0.00 0.00 0.00 15 1012.3
20210917050106 69 270 1.0 8.0 0.00 0.00 0.00 15 1012.2
20210917045610 70 135 0.0 13.0 0.00 0.00 0.00 15 1012.1
20210917045045 70 167 2.0 13.0 0.00 0.00 0.00 15 1012.0
20210917044623 70 270 2.0 9.0 0.00 0.00 0.00 15 1011.9
20210917044059 70 270 1.0 10.0 0.00 0.00 0.00 15 1011.8
20210917043545 70 270 2.0 15.0 0.00 0.00 0.00 15 1011.7
20210917043136 70 270 2.0 6.0 0.00 0.00 0.00 15 1011.7
20210917042604 71 270 2.0 8.0 0.00 0.00 0.00 15 1011.7
20210917042101 72 270 3.0 8.0 0.00 0.00 0.00 15 1011.5
20210917041659 72 270 4.0 8.0 0.00 0.00 0.00 15 1011.4
20210917041054 72 352 3.0 10.0 0.00 0.00 0.00 15 1011.4
20210917040544 72 335 4.0 10.0 0.00 0.00 0.00 15 1011.3
20210917040135 72 270 3.0 14.0 0.00 0.00 0.00 15 1011.1
20210917035543 72 270 3.0 8.0 0.00 0.00 0.00 15 1011.1
20210917035043 72 355 3.0 9.0 0.00 0.00 0.00 15 1011.0
20210917034605 72 340 4.0 9.0 0.00 0.00 0.00 15 1011.0
20210917034043 72 270 2.0 16.0 0.00 0.00 0.00 15 1011.0
20210917033543 72 270 4.0 16.0 0.00 0.00 0.00 15 1010.9
20210917033108 73 270 3.0 10.0 0.00 0.00 0.00 15 1011.0
20210917032551 73 270 3.0 10.0 0.00 0.00 0.00 15 1011.0
20210917032042 73 8 4.0 10.0 0.00 0.00 0.00 15 1010.8
20210917031754 73 270 3.0 12.0 0.00 0.00 0.00 15 1010.8
20210917031059 73 270 3.0 15.0 0.00 0.00 0.00 16 1010.7
20210917030542 73 333 3.0 18.0 0.00 0.00 0.00 16 1010.7
20210917030109 73 270 4.0 18.0 0.00 0.00 0.00 16 1010.5
20210917025541 73 270 4.0 14.0 0.00 0.00 0.00 16 1010.5
20210917025043 74 270 4.0 14.0 0.00 0.00 0.00 17 1010.4
20210917024544 74 270 4.0 14.0 0.00 0.00 0.00 17 1010.3
20210917024046 73 328 5.0 14.0 0.00 0.00 0.00 17 1010.1
20210917023540 74 270 4.0 9.0 0.00 0.00 0.00 17 1010.1
20210917023058 73 270 4.0 9.0 0.00 0.00 0.00 17 1010.0
20210917022543 74 339 3.0 9.0 0.00 0.00 0.00 17 1010.0
20210917022040 74 270 3.0 9.0 0.00 0.00 0.00 17 1009.8
20210917021543 74 270 3.0 12.0 0.00 0.00 0.00 17 1009.7
20210917021039 74 270 4.0 16.0 0.00 0.00 0.00 17 1009.5
20210917020538 74 270 3.0 11.0 0.00 0.00 0.00 17 1009.6
20210917020120 74 270 5.0 14.0 0.00 0.00 0.00 17 1009.5
20210917015550 74 270 4.0 16.0 0.00 0.00 0.00 17 1009.5
20210917015047 74 270 5.0 18.0 0.00 0.00 0.00 17 1009.2
20210917014601 74 270 4.0 18.0 0.00 0.00 0.00 17 1009.2
20210917014041 74 270 4.0 14.0 0.00 0.00 0.00 17 1009.2
20210917013537 74 270 4.0 16.0 0.00 0.00 0.00 17 1009.1
20210917013128 74 270 3.0 16.0 0.00 0.00 0.00 17 1009.1
20210917012537 74 2 3.0 9.0 0.00 0.00 0.00 17 1008.9
20210917012038 74 348 3.0 6.0 0.00 0.00 0.00 17 1008.9
20210917011618 74 270 3.0 10.0 0.00 0.00 0.00 17 1008.8
20210917011037 74 344 3.0 10.0 0.00 0.00 0.00 17 1008.8
20210917010536 75 270 2.0 12.0 0.00 0.00 0.00 17 1008.8
20210917005535 75 355 2.0 10.0 0.00 0.00 0.00 17 1008.9
20210917005036 75 355 3.0 13.0 0.00 0.00 0.00 17 1008.9
20210917004715 75 270 2.0 14.0 0.00 0.00 0.00 16 1009.0
20210917004039 75 270 3.0 18.0 0.00 0.00 0.00 16 1009.0
20210917003536 75 270 5.0 18.0 0.00 0.00 0.00 16 1009.0
20210917003045 76 270 2.0 15.0 0.00 0.00 0.00 16 1009.0
20210917002535 76 270 4.0 15.0 0.00 0.00 0.00 16 1009.1
20210917002034 77 270 6.0 14.0 0.00 0.00 0.00 15 1009.0
20210917001543 78 270 2.0 13.0 0.00 0.00 0.00 15 1009.0
20210917001034 78 270 0.0 8.0 0.00 0.00 0.00 15 1009.0
20210917000538 79 270 1.0 8.0 0.00 0.00 0.00 15 1008.9
20210917000048 79 142 0.0 5.0 0.00 0.00 0.00 15 1008.8
20210916235533 79 140 0.0 8.0 0.00 0.00 0.00 15 1008.7
20210916235045 79 124 1.0 8.0 0.00 0.00 0.00 15 1008.7
20210916234545 79 123 0.0 6.0 0.00 0.00 0.00 15 1008.5
20210916234031 79 163 0.0 9.0 0.00 0.00 0.00 15 1008.4
20210916233533 79 111 0.0 9.0 0.00 0.00 0.00 15 1008.4
20210916233111 79 103 1.0 4.0 0.00 0.00 0.00 15 1008.3
20210916232534 80 67 0.0 2.0 0.00 0.00 0.00 15 1008.4
20210916232031 80 67 0.0 3.0 0.00 0.00 0.00 15 1008.4
20210916231601 80 83 0.0 3.0 0.00 0.00 0.00 15 1008.3
20210916231031 81 66 0.0 2.0 0.00 0.00 0.00 14 1008.4
20210916230530 81 67 0.0 3.0 0.00 0.00 0.00 15 1008.5
20210916230039 81 67 0.0 3.0 0.00 0.00 0.00 15 1008.5
20210916225534 81 63 0.0 2.0 0.00 0.00 0.00 15 1008.5
20210916225028 81 58 0.0 1.0 0.00 0.00 0.00 15 1008.4
20210916224615 80 53 0.0 1.0 0.00 0.00 0.00 15 1008.4
20210916224033 79 53 0.0 1.0 0.00 0.00 0.00 15 1008.3
20210916223537 78 56 0.0 2.0 0.00 0.00 0.00 18 1008.2
20210916223113 78 64 0.0 3.0 0.00 0.00 0.00 17 1008.2
20210916222528 78 73 1.0 5.0 0.00 0.00 0.00 17 1008.2
20210916222027 77 66 0.0 5.0 0.00 0.00 0.00 17 1008.1
20210916221539 77 58 0.0 3.0 0.00 0.00 0.00 16 1008.1
20210916221030 77 60 0.0 5.0 0.00 0.00 0.00 16 1008.1
20210916220527 78 74 0.0 5.0 0.00 0.00 0.00 15 1008.1
20210916220049 78 73 0.0 3.0 0.00 0.00 0.00 16 1008.2
20210916215534 78 52 0.0 3.0 0.00 0.00 0.00 16 1008.1
20210916215035 78 73 0.0 3.0 0.00 0.00 0.00 15 1008.2
20210916214529 78 53 0.0 6.0 0.00 0.00 0.00 16 1008.2
20210916214036 78 63 0.0 6.0 0.00 0.00 0.00 16 1008.2
20210916213524 78 54 0.0 2.0 0.00 0.00 0.00 16 1008.2
20210916213127 78 47 0.0 3.0 0.00 0.00 0.00 16 1008.2
20210916212524 78 59 0.0 3.0 0.00 0.00 0.00 16 1008.2
20210916212105 78 90 0.0 7.0 0.00 0.00 0.00 15 1008.2
20210916211536 78 77 1.0 7.0 0.00 0.00 0.00 15 1008.2
20210916211036 78 119 0.0 3.0 0.00 0.00 0.00 14 1008.4
20210916210532 79 73 0.0 3.0 0.00 0.00 0.00 15 1008.4
20210916210049 79 63 0.0 6.0 0.00 0.00 0.00 15 1008.5
20210916205601 79 81 1.0 6.0 0.00 0.00 0.00 16 1008.6
20210916205032 78 102 0.0 1.0 0.00 0.00 0.00 15 1008.6
20210916204546 78 344 0.0 3.0 0.00 0.00 0.00 14 1008.7
20210916204021 78 85 0.0 3.0 0.00 0.00 0.00 15 1008.8
20210916203520 78 69 0.0 3.0 0.00 0.00 0.00 16 1008.8
20210916203027 78 71 0.0 4.0 0.00 0.00 0.00 15 1008.8
20210916202520 78 48 0.0 4.0 0.00 0.00 0.00 15 1008.8
20210916202037 79 70 0.0 6.0 0.00 0.00 0.00 15 1008.7
20210916201522 80 62 1.0 8.0 0.00 0.00 0.00 14 1008.7
20210916201026 81 66 1.0 8.0 0.00 0.00 0.00 14 1008.7
20210916200524 80 57 1.0 7.0 0.00 0.00 0.00 14 1008.8
20210916200019 79 24 0.0 9.0 0.00 0.00 0.00 16 1008.8
20210916195525 78 85 0.0 9.0 0.00 0.00 0.00 16 1009.0
20210916195019 78 51 1.0 3.0 0.00 0.00 0.00 15 1009.0
20210916194536 78 55 0.0 9.0 0.00 0.00 0.00 15 1009.1
20210916194042 78 60 1.0 3.0 0.00 0.00 0.00 15 1009.1
20210916193516 79 54 1.0 3.0 0.00 0.00 0.00 15 1009.1
20210916193041 79 79 0.0 5.0 0.00 0.00 0.00 15 1009.1
20210916192518 80 79 0.0 5.0 0.00 0.00 0.00 14 1009.2
20210916192019 80 60 0.0 7.0 0.00 0.00 0.00 15 1009.3
20210916191515 78 52 0.0 7.0 0.00 0.00 0.00 16 1009.2
20210916191016 77 106 1.0 7.0 0.00 0.00 0.00 15 1009.2
20210916190518 78 88 1.0 7.0 0.00 0.00 0.00 15 1009.2
20210916190051 78 77 0.0 9.0 0.00 0.00 0.00 14 1009.2
20210916185513 77 82 1.0 9.0 0.00 0.00 0.00 15 1009.2
20210916185016 76 88 0.0 7.0 0.00 0.00 0.00 15 1009.2
20210916184513 77 95 1.0 7.0 0.00 0.00 0.00 15 1009.3
20210916184011 77 102 0.0 6.0 0.00 0.00 0.00 15 1009.4
20210916183510 78 86 0.0 9.0 0.00 0.00 0.00 15 1009.4
20210916183015 78 101 2.0 9.0 0.00 0.00 0.00 15 1009.5
20210916182509 78 127 1.0 10.0 0.00 0.00 0.00 15 1009.5
20210916182009 79 270 2.0 11.0 0.00 0.00 0.00 15 1009.4
20210916181608 80 350 3.0 11.0 0.00 0.00 0.00 14 1009.4
20210916181007 79 270 1.0 11.0 0.00 0.00 0.00 15 1009.4
20210916180508 79 270 2.0 18.0 0.00 0.00 0.00 15 1009.5
20210916180005 79 138 4.0 18.0 0.00 0.00 0.00 14 1009.6
20210916175503 80 7 2.0 13.0 0.00 0.00 0.00 15 1009.5
20210916175002 79 270 3.0 18.0 0.00 0.00 0.00 14 1009.7
20210916174119 79 270 4.0 16.0 0.00 0.00 0.00 15 1009.7
20210916173609 79 352 3.0 17.0 0.00 0.00 0.00 15 1010.0
20210916173157 79 270 3.0 19.0 0.00 0.00 0.00 15 1010.1
20210916172604 78 270 2.0 19.0 0.00 0.00 0.00 15 1010.1
20210916172118 78 270 3.0 13.0 0.00 0.00 0.00 15 1010.2
20210916171630 78 270 3.0 13.0 0.00 0.00 0.00 15 1010.4
20210916171110 78 270 2.0 14.0 0.00 0.00 0.00 15 1010.3
20210916170552 77 270 2.0 14.0 0.00 0.00 0.00 15 1010.4
20210916170148 77 270 3.0 13.0 0.00 0.00 0.00 16 1010.5
20210916165557 77 270 2.0 16.0 0.00 0.00 0.00 16 1010.6
20210916165109 76 270 4.0 16.0 0.00 0.00 0.00 16 1010.6
20210916164642 76 270 3.0 14.0 0.00 0.00 0.00 16 1010.6
20210916164052 77 270 5.0 14.0 0.00 0.00 0.00 16 1010.9
20210916163542 76 270 4.0 14.0 0.00 0.00 0.00 17 1010.9
20210916163127 77 132 2.0 16.0 0.00 0.00 0.00 16 1010.9
20210916162604 77 270 6.0 16.0 0.00 0.00 0.00 16 1010.9
20210916162038 76 270 2.0 14.0 0.00 0.00 0.00 17 1010.9
20210916161549 77 270 2.0 14.0 0.00 0.00 0.00 16 1011.0
20210916161044 76 147 2.0 13.0 0.00 0.00 0.00 17 1011.1
20210916160546 76 270 2.0 13.0 0.00 0.00 0.00 17 1011.0
20210916160052 76 270 1.0 14.0 0.00 0.00 0.00 17 1011.1
20210916155538 76 270 3.0 14.0 0.00 0.00 0.00 16 1011.1
20210916155032 76 270 4.0 12.0 0.00 0.00 0.00 17 1011.1